Location: Les Coudrans
(46.1056°N, 1.1158°W)
Time: 15:58:02
(UTC+00:00)

H-2A R/B - Pass Details

Date: 03 March 2021
Orbit: 732 x 837 km, 98.2° (Epoch: 18 April)

Event Time Altitude Azimuth Distance (km) Brightness Sun altitude
Rises 19:40:51 0° 196° (SSW) 3,364 5.4 -19.3°
Reaches altitude 10° 19:43:31 10° 208° (SSW) 2,442 4.8 -19.7°
Maximum altitude 19:48:09 28° 266° (W) 1,514 4.2 -20.5°
Drops below altitude 10° 19:52:50 10° 325° (NW) 2,457 5.3 -21.3°
Sets 19:55:32 0° 337° (NNW) 3,389 5.9 -21.8°
